カタログに戻る

STARLINK-1321

運用中通信VLEO
NORAD 45573·PAYLOAD·🇺🇸 United States

打ち上げ Apr 22, 2020 から Cape Canaveral Space Force Station

Loading…

次のパス (今後24時間)

TLE

最新Source: CelesTrak SupGP

元期: Sep 15, 2026, 00:22 UTC

1 45573C 20025AU  26258.01576389  .00075330  00000+0  36916-3 0  2588
2 45573  53.0339 208.5825 0006080  72.2447  63.4895 15.81478197    16

AllMySatでSTARLINK-1321をリアルタイム追跡

Download on the App Store